www.pogodaiklimat.ru

Погода и климат >> Архив погоды >> Аргентина >> San Fernando del Valle de Catamarca


ПОГОДА в San Fernando del Valle de Catamarca

  • Прогноз погоды в San Fernando del Valle de Catamarca
  • Монитор погоды в San Fernando del Valle de Catamarca
  • Климат города

АРХИВ ПОГОДЫ в San Fernando del Valle de Catamarca

Время (UTC), дата Ветер
(напр.,м/с)
 
Видим.   Явления Облачность Т
(С)
Тd
(С)
f
(%)
Тe
(С)
Тes
(С)
Комфортность P
(гПа)
Po
(гПа)
Тmin
(С)
Tmax
(С)
R
(мм)
R24
(мм)
S
(см)
00 14.11 штиль 0 20 км 3/1 1500 м
[Sc Ac As]
+17.8 +9.7 59 +18 +18 1011.1 958.9 +17.2 +24.5
03 14.11 С 4 20 км 3/0
[Ac As]
+16.8 +8.0 56 +16 +16 1013.1 961.0
06 14.11 ЮВ 2 20 км ясно +12.0 +7.6 74 +11 +11 1012.7 960.4
09 14.11 С 2 20 км ясно +9.6 +6.7 82 +8 +8 1012.9 960.4
12 14.11 С 3 20 км ясно +18.8 +6.9 46 +19 +24 1013.6 961.4
15 14.11 С 3 20 км 1/1 1500 м
[Sc]
+28.2 +6.1 25 +27 +43 жарко 1010.5 959.2
18 14.11 С 11 20 км ясно +31.2 +5.6 20 +29 +30 жарко 1007.1 955.8
21 14.11 С 12 20 км ясно +29.2 +3.6 20 +27 +27 жарко 1006.1 954.5
00 15.11 СВ 9 20 км ясно +24.5 +6.9 32 +25 +25 комфорт 1006.7 955.4 +18.4 +32.5
03 15.11 С 9 20 км ясно +22.6 +6.8 36 +23 +23 комфорт 1007.1 956.5
06 15.11 С 7 20 км ясно +21.6 +7.9 41 +23 +23 комфорт 1005.1 954.6
09 15.11 С 8 20 км ясно +20.4 +7.9 44 +21 +21 комфорт 1005.1 954.7
12 15.11 С 8 20 км ясно +25.8 +7.6 31 +26 +27 жарко 1004.6 954.0 +19.6 +25.8
15 15.11 С 10 20 км ясно +31.8 +7.9 23 +31 +31 жарко 1002.1 952.0
18 15.11 С 10 20 км ясно +34.2 +9.5 22 +33 +34 жарко 999.7 949.8
21 15.11 С 12 20 км ясно +32.4 +10.6 26 +32 +32 жарко 999.1 949.0
00 16.11 С 9 20 км ясно +29.4 +12.6 36 +31 +31 жарко 1002.1 952.1 +25.6 +34.5
03 16.11 С 7 20 км ясно +28.8 +11.7 35 +30 +30 жарко 1002.9 953.3
06 16.11 СВ 4 20 км ясно +24.4 +13.9 52 +27 +27 жарко 1003.7 953.8
09 16.11 В 1 20 км ясно +20.2 +13.8 67 +23 +23 комфорт 1007.4 956.9
12 16.11 ЮЗ 2 20 км 3/0
[Ac cuf]
+24.7 +9.2 37 +25 +30 комфорт 1009.1 958.6 +18.0 +29.4
15 16.11 С 11 20 км 1/1 2000 м
[Sc diur, vesp]
+31.8 +14.3 35 +34 +34 душно 1005.2 955.4
18 16.11 С 13 20 км 1/1 2000 м
[Sc diur, vesp]
+33.6 +13.9 30 +35 +35 душно 1001.8 952.0
21 16.11 С 14 20 км 1/1 2000 м
[Sc diur, vesp]
+31.6 +15.7 38 +34 +34 душно 999.5 949.3
00 17.11 С 11 20 км 1/0
[Ci]
+29.2 +16.8 47 +33 +33 очень
душно
1000.8 950.6 +24.5 +35.0
03 17.11 С 8 20 км 3/0
[Cs]
+28.0 +16.1 48 +31 +31 душно 1001.3 951.7
06 17.11 С 7 20 км ясно +27.0 +17.4 56 +31 +31 душно 999.5 950.0
09 17.11 СЗ 1 20 км 3/0
[Cs]
+24.0 +17.8 68 +28 +28 душно 1000.2 950.2
12 17.11 ЮЗ 3 20 км ясно +28.2 +18.5 56 +33 +38 очень
душно
1001.5 951.7 +22.2 +29.2
15 17.11 Ю 3 20 км ясно +32.5 +18.2 43 +37 +55 опасность
солнечного
удара
1000.2 950.6
18 17.11 В 5 20 км 4/4 1500 м
[Sc]
+38.5 +14.4 24 +39 +45 душно 997.4 948.4
21 17.11 С 8 20 км 5/5 1500 м
[Sc]
+35.5 +16.4 32 +38 +38 очень
душно
997.5 948.0
00 18.11 С 5 20 км 4/4 1200 м
[Cu med, cong]
+31.4 +14.2 35 +33 +33 жарко 1000.4 950.8 +28.2 +39.0
03 18.11 В 13 20 км зарница 9/9 1200 м
[Cb cap]
+26.8 +13.3 43 +29 +29 жарко 1006.5 956.6
06 18.11 ЮЗ 4 20 км 10/10 900 м
[Sc]
+22.2 +11.5 51 +24 +24 комфорт 1011.7 961.6
09 18.11 ЮЗ 2 20 км 10/10 900 м
[Sc]
+20.6 +12.7 61 +23 +23 комфорт 1014.1 963.4
12 18.11 С 4 2000 м морось 10/6 900 м
[Sc As op]
+17.2 +15.9 92 +17 +17 1018.3 966.9 +16.6 +31.8 1
15 18.11 С 6 20 км 10/10 1350 м
[Sc]
+18.8 +14.5 76 +19 +19 1017.2 965.6
18 18.11 С 13 20 км {морось} 5/5 1350 м
[Sc]
+25.0 +7.9 34 +25 +25 комфорт 1013.9 962.6
21 18.11 С 11 20 км 1/1 1350 м
[Sc]
+25.8 +7.1 30 +26 +26 жарко 1011.4 960.2
00 19.11 С 13 20 км ясно +21.6 +8.4 43 +23 +23 комфорт 1014.0 962.0 +17.2 +27.0
03 19.11 С 10 20 км ясно +19.7 +8.6 49 +20 +20 1012.4 960.6
06 19.11 СВ 10 20 км ясно +21.2 +5.7 36 +22 +22 комфорт 1010.7 959.4
09 19.11 С 8 20 км ясно +21.3 +5.6 36 +22 +22 комфорт 1009.8 958.8
12 19.11 С 15 20 км ясно +24.4 +5.9 30 +24 +24 комфорт 1010.4 959.2 +19.4 +24.6
15 19.11 С 13 15 км пыльный позёмок ясно +27.4 +7.5 28 +27 +27 жарко 1008.3 957.3
18 19.11 С 13 15 км пыльный позёмок ясно +29.6 +8.0 26 +29 +29 жарко 1004.5 954.0
21 19.11 С 20 15 км пыльный позёмок ясно +29.0 +10.1 31 +29 +29 жарко 1003.4 952.8
00 20.11 СВ 11 20 км ясно +26.0 +12.6 43 +28 +28 жарко 1005.4 954.8 +24.2 +30.5
03 20.11 С 9 20 км ясно +26.0 +13.5 46 +28 +28 жарко 1006.2 955.8
06 20.11 С 5 20 км ясно +23.8 +15.1 58 +27 +27 жарко 1005.9 955.4
09 20.11 С 6 20 км ясно +21.4 +14.5 65 +24 +24 комфорт 1007.0 956.2
12 20.11 С 4 20 км ясно +26.6 +14.3 47 +29 +33 жарко 1008.3 957.7 +20.8 +26.6
15 20.11 ЮВ 2 20 км 1/1 2000 м
[Sc diur, vesp]
+31.8 +14.3 35 +34 +53 опасность
солнечного
удара
1007.1 957.0
18 20.11 С 8 20 км 1/1 2000 м
[Sc diur, vesp]
+35.2 +14.1 28 +36 +39 очень
жарко
1003.6 953.8

 

Местоположение метеостанции San Fernando del Valle de Catamarca (Аргентина): широта -28.60 долгота -65.76 высота над уровнем моря 454 м.

В архиве по умолчанию представлена погода в San Fernando del Valle de Catamarca за последнюю неделю. Архивные данные за месяц целиком и за предыдущие месяцы, начиная с января 2011 года, Вы можете получить, выбрав интересующий диапазон дат из раскрывающегося списка и нажав кнопку "Ввод!".


*Определитесь, кто Вы:
робот инопланетянин человек

Внимание! Время в таблицах - всемирное. Для получения местного времени необходимо прибавить поправку, которая в San Fernando del Valle de Catamarca равна -3 ч.

Смотрите также архив погоды в соседних городах и на ближайших метеорологических станциях:

Погода в La Rioja (Аргентина) (134 км)
Погода в Santiago del Estero (Аргентина) (171 км)
Погода в Chamical (Аргентина) (202 км)
Погода в San Miguel de Tucuman (Аргентина) (206 км)
Погода в Villa de Maria del Rio Seco (Аргентина) (248 км)
Погода в Cordoba (Аргентина) (336 км)
Погода в Villa Dolores (Аргентина) (377 км)
Погода в Pilar (Аргентина) (385 км)
Погода в Ceres (Аргентина) (396 км)
Погода в San Juan (Аргентина) (403 км)

Пояснения к столбцам:

Ветер - указаны скорость ветра в м/с - средняя за 10 мин, порывы в срок и между сроками (в фигурных скобках) и направление, откуда дует ветер: С - северный, СВ - северо-восточный, В - восточный, ЮВ - юго-восточный, Ю - южный, ЮЗ - юго-западный, З - западный, СЗ - северо-западный.
Видимость - горизонтальная дальность видимости в метрах или километрах. При видимости от 1 до 10 км при отсутствии осадков обычно наблюдается дымка, при ухудшении видимости до 1 км и менее - туман. В сухую погоду видимость может ухудшаться дымом, пылью или мглою.
Явления - указаны атмосферные явления, наблюдавшиеся в срок или в последний час перед сроком; фигурными скобками обозначены явления, наблюдавшиеся между сроками (за 1-3 часа до срока); квадратными скобками обозначены град или гололедные отложения с указанием их диаметра в мм.
Облачность - указаны через наклонную черту общая и нижняя облачность в баллах и высота нижней границы облаков в метрах; квадратными скобками обозначены формы облаков: Ci - перистые, Cs - перисто-слоистые, Cc - перисто-кучевые, Ac - высококучевые, As - высокослоистые, Sc - слоисто-кучевые, Ns - слоисто-дождевые, Cu - кучевые, Cb - кучево-дождевые. Подробнее классификацию облаков см. в Атласе облаков (PDF).
T - Температура воздуха - температура, измеренная на высоте 2 м над землей.
Td - Температура точки росы - температура, при понижении до которой содержащийся в воздухе водяной пар достигнет насыщения.
f - Относительная влажность воздуха - влажноcть воздуха, измеренная на высоте 2 м над землей.
Te - Эффективная температура - температура, которую ощущает одетый по сезону человек в тени. Характеристика душности погоды. При расчете учитывается влияние влажности воздуха и скорости ветра на теплоощущения человека.
Tes - Эффективная температура на солнце - температура, которую ощущает человек, с поправкой на солнечный нагрев. Характеристика знойности погоды. Зависит от высоты солнца над горизонтом, облачности и скорости ветра. Ночью, в пасмурную погоду, а также при ветре 12 м/с и более поправка равна нулю.
P - Атмосферное давление - приведенное к уровню моря атмосферное давление.
Po - Атмосферное давление - измеренное на уровне метеостанции атмосферное давление.
Tmin - Минимальная температура - минимум температуры воздуха на высоте 2 м над землей.
Tmax - Максимальная температура - максимум температуры воздуха на высоте 2 м над землей.
R - Количество осадков - Количество выпавших осадков за период времени, мм. При наведении курсора мыши на число - период времени, за который выпало указанное количество осадков.
R24 - Количество осадков - Количество выпавших осадков за 24 часа, мм.
S - Снежный покров - Высота снежного покрова, см. При наведении курсора мыши на число - состояние снежного покрова и степень покрытия местности в баллах.